#timestamp,LO_Frequency,Hit,StdDev 
1618736415.3,286047003.6,N
1618736435.1,286047006.0,N
1618736455.9,286047003.2,N
1618736475.7,286047004.2,N
1618736495.5,286047003.5,N
1618736515.4,286047003.9,N
1618736535.2,286047002.7,N
1618736555.1,286047000.1,N
1618736556.0,286047000.1,N
1618736575.8,286047000.9,N
1618736595.6,286046998.4,N
1618736615.5,286047001.5,N
1618736635.3,286047001.6,N
1618736655.1,286047001.6,N
1618736675.9,286047002.8,N
1618736695.7,286047005.6,N
1618736715.6,286047003.1,N
1618736735.4,286047000.3,N
1618736755.2,286046994.9,N
1618736775.1,286046996.0,N
1618736776.0,286046996.0,N
1618736795.8,286046996.2,N
1618736815.6,286046995.4,N
1618736835.5,286046996.0,N
1618736855.3,286046994.9,N
1618736875.2,286046999.6,N
1618736895.9,286047000.8,N
1618736915.7,286046998.3,N
1618736935.6,286047000.7,N
1618736955.4,286047002.3,N
1618736975.2,286047000.7,N
1618736995.1,286046998.7,N
1618736996.0,286046998.7,N
1618737015.8,286047001.1,N
1618737035.7,286047004.2,N
1618737055.5,286047003.4,N
1618737075.3,286047005.8,N
1618737095.2,286047002.9,N
1618737115.0,286047004.5,N
1618737115.9,286047004.5,N
1618737135.8,286047003.0,N
1618737155.6,286047003.7,N
1618737175.4,286047006.0,N
1618737195.3,286047004.3,N
1618737215.1,286047011.9,Y
1618737235.8,286046998.1,P
1618737255.7,286046998.3,N
1618737275.5,286046999.3,N
1618737295.4,286047001.1,N
1618737315.2,286047001.1,N
1618737335.0,286047002.8,N
1618737335.9,286047002.8,N
1618737355.8,286047002.8,N
1618737375.6,286047000.6,N
1618737395.4,286046996.6,N
1618737415.3,286046997.6,N
1618737435.1,286046994.9,N
1618737455.9,286046995.6,N
1618737475.7,286046998.0,N
1618737495.5,286046997.0,N
1618737515.4,286046997.0,N
1618737535.2,286046999.4,N
1618737555.1,286047002.7,N
1618737556.0,286047002.7,N
1618737575.8,286047004.1,N
1618737595.6,286047003.0,N
1618737615.5,286047004.1,N
1618737635.3,286047005.9,N
1618737655.2,286047004.3,N
1618737675.9,286047002.2,N
1618737695.7,286047001.1,N
1618737715.6,286046996.7,N
1618737735.4,286046997.0,N
1618737755.2,286046996.5,N
1618737775.1,286046999.2,N
1618737776.0,286046999.2,N
1618737795.8,286046999.6,N
1618737815.7,286046999.1,N
1618737835.5,286047001.0,N
1618737855.3,286047000.5,N
1618737875.2,286047002.1,N
1618737895.9,286047000.4,N
1618737915.7,286047001.1,N
1618737935.6,286047002.7,N
1618737955.4,286047000.8,N
1618737975.3,286046999.3,N
1618737995.1,286047001.0,N
1618737996.0,286047001.0,N
1618738015.8,286047002.0,N
1618738035.7,286047005.5,N
1618738055.5,286047006.0,N
1618738075.3,286047003.2,N
1618738095.2,286047002.6,N
1618738115.0,286047002.2,N
1618738115.9,286047002.2,N
1618738135.8,286046999.4,N
1618738155.6,286046999.5,N
1618738175.4,286046999.3,N
1618738195.3,286046997.3,N
1618738215.1,286046999.1,N
1618738235.8,286046996.5,N
1618738255.7,286046996.9,N
1618738275.5,286046999.2,N
1618738295.4,286046999.5,N
1618738315.2,286046998.3,N
1618738335.0,286047002.2,N
1618738335.9,286047002.2,N
1618738355.8,286047003.4,N
1618738375.6,286047007.3,Y
1618738395.4,286047005.0,P
1618738415.3,286047004.5,N
1618738435.1,286047005.5,N
1618738455.9,286047003.1,N
1618738475.7,286047004.3,N
1618738495.5,286047002.6,N
1618738515.4,286046998.8,N
1618738535.2,286046999.3,N
1618738555.0,286046996.7,N
1618738555.9,286046996.7,N
1618738575.8,286046997.9,N
1618738595.6,286046997.2,N
1618738615.5,286046996.5,N
1618738635.3,286047000.1,N
1618738655.1,286046998.8,N
1618738675.9,286046999.2,N
1618738695.7,286046998.3,N
1618738715.5,286047000.3,N
1618738735.4,286047002.5,N
1618738755.2,286047001.0,N
1618738775.1,286046998.6,N
1618738776.0,286046998.6,N
1618738795.8,286047000.0,N
1618738815.6,286047000.6,N
1618738835.5,286047000.9,N
1618738855.3,286047001.1,N
1618738875.1,286046998.2,N
1618738895.9,286047001.0,N
1618738915.7,286047000.7,N
1618738935.6,286047000.6,N
1618738955.4,286047001.4,N
1618738975.2,286047003.0,N
1618738995.1,286047004.3,N
1618738996.0,286047004.3,N
1618739015.8,286047000.2,N
1618739035.6,286046998.1,N
1618739055.5,286047000.9,N
1618739075.3,286047000.1,N
1618739095.2,286047002.4,N
1618739115.9,286047000.5,N
1618739135.7,286047001.5,N
1618739155.6,286047001.5,N
1618739175.4,286046999.9,N
1618739195.2,286046998.5,N
1618739215.1,286047000.0,N
1618739216.0,286047000.0,N
1618739235.8,286047000.2,N
1618739255.7,286047000.0,N
1618739275.5,286046999.2,N
1618739295.3,286046998.9,N
1618739315.2,286046997.0,N
1618739335.9,286046998.6,N
1618739355.7,286047002.4,N
1618739375.6,286046999.8,N
1618739395.4,286046999.9,N
1618739415.3,286047000.0,N
1618739435.1,286047000.7,N
1618739436.0,286047000.7,N
1618739455.8,286046998.9,N
1618739475.7,286046999.5,N
1618739495.5,286046997.1,N
1618739515.3,286046998.4,N
1618739535.2,286047000.3,N
1618739555.0,286047000.0,N
1618739555.9,286047000.0,N
1618739575.8,286047002.6,N
1618739595.6,286047000.6,N
1618739615.5,286047000.2,N
1618739635.3,286047002.1,N
1618739655.1,286047004.0,Y
1618739675.9,286047007.5,P
1618739695.7,286047008.9,N
1618739715.5,286047004.5,N
1618739735.4,286047004.0,N
1618739755.2,286047001.4,N
1618739775.1,286047002.9,N
1618739776.0,286047002.9,N
1618739795.8,286047004.5,N
1618739815.6,286047005.2,N
1618739835.5,286047001.4,N
1618739855.3,286047003.7,N
1618739875.1,286047004.7,N
1618739895.9,286047004.1,N
1618739915.7,286047001.4,N
1618739935.6,286047001.7,N
1618739955.4,286047002.2,N
1618739975.2,286047004.6,N
1618739995.1,286047004.6,N
1618739996.0,286047004.6,N
